Mardi 21 août 2018   -   semaine 34                    on fête: Christophe                    soleil  (-4 mn) lever du soleil 06:52:00 coucher du soleil 20:46:00                    lune Lune gibbeuse croissante
Sélection

Sélection d'un SYNOP

   Synop:       

  Période à consulter:

Actuelle
Archive     

Relevé

Dernier relevé du SYNOP pour la période choisie

Conditions météo à la station de Vichy/Charmeil (4610N 00324E)    altitude 251m

Date du relevé21/08/2018 à 19:00
Visibilité16km
Vent4 km/h N
Température29.8 C
Température mini / 12h-8.0 C
Humidité43.1 %
Point de rosée15.9 C
Pression absolue987.1 hPa
Pression relative1015.1 hPa
Variation pression-1.2 hPa en baisse puis stationnaire ou en baisse, puis en baisse lente

24h

Historique de la période choisie

Certaines stations ne diffusent pas en continu, d'où l'absence possible de données à certaines heures. Le tableau ci-dessous récapitule l'historique des relevés de la station de Vichy/Charmeil.

Date - Heure Base des nuages Visibilité Nébulosité Vent - Secteur Température Humidité Point rosée Pression / Géopotentiel Précipitations Temps
21/08 19:00 16km 4 km/h N 29.8 C 43.1 % 15.9 C 1015.1 hPa
21/08 18:00 20km 6 km/h NE 30.0 C 42.1 % 15.7 C 1015.1 hPa
21/08 17:00 17km 2 km/h NNE 30.4 C 44.1 % 16.8 C 1015.7 hPa
21/08 16:00 19km 6 km/h N 29.7 C 43.9 % 16.1 C 1016.4 hPa
21/08 15:00 19km 4 km/h NNE 28.9 C 47.2 % 16.5 C 1017.1 hPa
21/08 14:00 20km 4 km/h NNE 27.9 C 50.0 % 16.5 C 1017.8 hPa 0 mm/6h
21/08 13:00 20km 4 km/h NE 26.9 C 54.0 % 16.8 C 1018.6 hPa
21/08 12:00 20km 4 km/h NNE 25.3 C 57.2 % 16.2 C 1019.3 hPa
21/08 11:00 20km 2 km/h N 24.3 C 63.0 % 16.8 C 1019.7 hPa
21/08 10:00 20km 2 km/h SE 21.9 C 70.1 % 16.2 C 1020.1 hPa
21/08 09:00 20km 2 km/h SE 19.7 C 78.2 % 15.8 C 1020.2 hPa
21/08 08:00 20km 2 km/h S 15.8 C 95.0 % 15.0 C 1020.7 hPa 0 mm/12h
21/08 07:00 20km 0 km/h N 14.0 C 96.2 % 13.4 C 1020.4 hPa
21/08 06:00 20km 0 km/h N 14.3 C 96.2 % 13.7 C 1020.1 hPa
21/08 05:00 20km 0 km/h N 14.6 C 93.7 % 13.6 C 1020.2 hPa
21/08 04:00 20km 2 km/h O 15.4 C 93.2 % 14.3 C 1020.4 hPa
21/08 03:00 20km 0 km/h N 16.0 C 90.8 % 14.5 C 1020.5 hPa
21/08 02:00 20km 0 km/h N 17.0 C 89.2 % 15.2 C 1020.6 hPa 0 mm/6h
21/08 01:00 20km 0 km/h N 18.1 C 84.3 % 15.4 C 1020.8 hPa
21/08 00:00 20km 0 km/h N 19.5 C 79.2 % 15.8 C 1020.6 hPa
20/08 23:00 20km 2 km/h NNE 21.0 C 73.1 % 16.0 C 1020.2 hPa
20/08 22:00 20km 0 km/h N 20.9 C 70.8 % 15.4 C 1019.9 hPa
20/08 21:00 20km 2 km/h NO 24.2 C 58.0 % 15.4 C 1019.1 hPa
20/08 20:00 20km 6 km/h NNO 26.6 C 51.9 % 15.9 C 1018.3 hPa 0 mm/12h

Source: ogimet